| time (UTC) | temp C | wind direction | speed KPH | gust KPH | rain 1hr cm | rain 24hr cm | rain mn cm | humidity % | barometer mb |
| 20260507172632 | 30 | 117 | 0.0 | 6.4 | 0.00 | 0.00 | 0.00 | 15 | 1011.5 |
| 20260507172015 | 30 | 121 | 0.0 | 8.0 | 0.00 | 0.00 | 0.00 | 15 | 1011.7 |
| 20260507171514 | 29 | 204 | 0.0 | 6.4 | 0.00 | 0.00 | 0.00 | 17 | 1011.7 |
| 20260507171103 | 29 | 163 | 0.0 | 6.4 | 0.00 | 0.00 | 0.00 | 17 | 1011.7 |
| 20260507170504 | 29 | 167 | 1.6 | 6.4 | 0.00 | 0.00 | 0.00 | 17 | 1011.9 |
| 20260507170030 | 28 | 172 | 0.0 | 4.8 | 0.00 | 0.00 | 0.00 | 19 | 1012.0 |
| 20260507165606 | 28 | 281 | 0.0 | 6.4 | 0.00 | 0.00 | 0.00 | 18 | 1012.0 |
| 20260507165004 | 28 | 199 | 1.6 | 6.4 | 0.00 | 0.00 | 0.00 | 19 | 1012.1 |
| 20260507164600 | 27 | 207 | 0.0 | 3.2 | 0.00 | 0.00 | 0.00 | 21 | 1012.0 |
| 20260507164057 | 27 | 207 | 0.0 | 3.2 | 0.00 | 0.00 | 0.00 | 22 | 1012.1 |
| 20260507163533 | 27 | 208 | 0.0 | 3.2 | 0.00 | 0.00 | 0.00 | 22 | 1012.1 |
| 20260507163109 | 27 | 208 | 0.0 | 4.8 | 0.00 | 0.00 | 0.00 | 23 | 1012.2 |
| 20260507162540 | 26 | 205 | 0.0 | 4.8 | 0.00 | 0.00 | 0.00 | 24 | 1012.1 |
| 20260507162027 | 26 | 218 | 0.0 | 6.4 | 0.00 | 0.00 | 0.00 | 24 | 1012.1 |
| 20260507161523 | 26 | 218 | 0.0 | 0.0 | 0.00 | 0.00 | 0.00 | 24 | 1012.3 |
| 20260507161116 | 26 | 218 | 0.0 | 0.0 | 0.00 | 0.00 | 0.00 | 24 | 1012.4 |
| 20260507160552 | 26 | 220 | 0.0 | 0.0 | 0.00 | 0.00 | 0.00 | 24 | 1012.3 |
| 20260507160111 | 26 | 220 | 0.0 | 0.0 | 0.00 | 0.00 | 0.00 | 26 | 1012.3 |
| 20260507155611 | 25 | 220 | 0.0 | 0.0 | 0.00 | 0.00 | 0.00 | 27 | 1012.3 |
| 20260507155011 | 25 | 221 | 0.0 | 0.0 | 0.00 | 0.00 | 0.00 | 27 | 1012.5 |
| 20260507154603 | 25 | 221 | 0.0 | 3.2 | 0.00 | 0.00 | 0.00 | 27 | 1012.5 |
| 20260507154005 | 25 | 222 | 0.0 | 3.2 | 0.00 | 0.00 | 0.00 | 27 | 1012.6 |
| 20260507153502 | 25 | 227 | 0.0 | 3.2 | 0.00 | 0.00 | 0.00 | 28 | 1012.6 |
| 20260507153021 | 24 | 245 | 0.0 | 1.6 | 0.00 | 0.00 | 0.00 | 28 | 1012.5 |
| 20260507152552 | 24 | 248 | 0.0 | 1.6 | 0.00 | 0.00 | 0.00 | 29 | 1012.5 |
| 20260507152108 | 23 | 248 | 0.0 | 1.6 | 0.00 | 0.00 | 0.00 | 29 | 1012.3 |
| 20260507151506 | 23 | 248 | 0.0 | 1.6 | 0.00 | 0.00 | 0.00 | 30 | 1012.3 |
| 20260507151153 | 23 | 248 | 0.0 | 1.6 | 0.00 | 0.00 | 0.00 | 32 | 1012.3 |
| 20260507150617 | 23 | 248 | 0.0 | 3.2 | 0.00 | 0.00 | 0.00 | 31 | 1012.3 |
| 20260507150004 | 22 | 248 | 0.0 | 0.0 | 0.00 | 0.00 | 0.00 | 33 | 1012.4 |
| 20260507145520 | 22 | 248 | 0.0 | 1.6 | 0.00 | 0.00 | 0.00 | 34 | 1012.4 |
| 20260507145052 | 22 | 248 | 0.0 | 1.6 | 0.00 | 0.00 | 0.00 | 33 | 1012.4 |
| 20260507144512 | 21 | 248 | 0.0 | 0.0 | 0.00 | 0.00 | 0.00 | 34 | 1012.4 |
| 20260507144045 | 21 | 248 | 0.0 | 0.0 | 0.00 | 0.00 | 0.00 | 34 | 1012.4 |
| 20260507143508 | 21 | 248 | 0.0 | 3.2 | 0.00 | 0.00 | 0.00 | 35 | 1012.3 |
| 20260507143051 | 21 | 248 | 0.0 | 3.2 | 0.00 | 0.00 | 0.00 | 34 | 1012.4 |
| 20260507142556 | 20 | 248 | 0.0 | 0.0 | 0.00 | 0.00 | 0.00 | 35 | 1012.5 |
| 20260507142113 | 20 | 248 | 0.0 | 0.0 | 0.00 | 0.00 | 0.00 | 34 | 1012.5 |
| 20260507141610 | 20 | 248 | 0.0 | 0.0 | 0.00 | 0.00 | 0.00 | 36 | 1012.5 |
| 20260507141007 | 19 | 248 | 0.0 | 0.0 | 0.00 | 0.00 | 0.00 | 37 | 1012.5 |
| 20260507140539 | 19 | 248 | 0.0 | 0.0 | 0.00 | 0.00 | 0.00 | 39 | 1012.5 |
| 20260507135511 | 18 | 248 | 0.0 | 0.0 | 0.00 | 0.00 | 0.00 | 41 | 1012.4 |
| 20260507135006 | 18 | 248 | 0.0 | 1.6 | 0.00 | 0.00 | 0.00 | 41 | 1012.3 |
| 20260507134601 | 18 | 248 | 0.0 | 1.6 | 0.00 | 0.00 | 0.00 | 41 | 1012.3 |
| 20260507134037 | 17 | 248 | 0.0 | 0.0 | 0.00 | 0.00 | 0.00 | 41 | 1012.3 |
| 20260507133629 | 17 | 236 | 0.0 | 0.0 | 0.00 | 0.00 | 0.00 | 42 | 1012.2 |
| 20260507133150 | 17 | 236 | 0.0 | 0.0 | 0.00 | 0.00 | 0.00 | 41 | 1012.2 |
| 20260507132552 | 16 | 236 | 0.0 | 0.0 | 0.00 | 0.00 | 0.00 | 43 | 1012.2 |
| 20260507132010 | 16 | 236 | 0.0 | 0.0 | 0.00 | 0.00 | 0.00 | 43 | 1012.1 |
| 20260507131600 | 16 | 236 | 0.0 | 0.0 | 0.00 | 0.00 | 0.00 | 44 | 1012.1 |
| 20260507131003 | 16 | 236 | 0.0 | 0.0 | 0.00 | 0.00 | 0.00 | 45 | 1012.0 |
| 20260507130558 | 16 | 236 | 0.0 | 0.0 | 0.00 | 0.00 | 0.00 | 45 | 1012.0 |
| 20260507130104 | 16 | 236 | 0.0 | 0.0 | 0.00 | 0.00 | 0.00 | 43 | 1012.0 |
| 20260507125504 | 16 | 236 | 0.0 | 0.0 | 0.00 | 0.00 | 0.00 | 43 | 1012.0 |
| 20260507124557 | 16 | 236 | 0.0 | 0.0 | 0.00 | 0.00 | 0.00 | 42 | 1011.8 |
| 20260507124107 | 16 | 236 | 0.0 | 0.0 | 0.00 | 0.00 | 0.00 | 42 | 1011.9 |
| 20260507123605 | 16 | 236 | 0.0 | 0.0 | 0.00 | 0.00 | 0.00 | 41 | 1012.0 |
| 20260507123102 | 16 | 236 | 0.0 | 0.0 | 0.00 | 0.00 | 0.00 | 41 | 1011.9 |
| 20260507122542 | 16 | 236 | 0.0 | 0.0 | 0.00 | 0.00 | 0.00 | 41 | 1011.8 |
| 20260507122058 | 16 | 236 | 0.0 | 0.0 | 0.00 | 0.00 | 0.00 | 41 | 1011.8 |
| 20260507121502 | 16 | 236 | 0.0 | 0.0 | 0.00 | 0.00 | 0.00 | 40 | 1011.9 |
| 20260507121036 | 16 | 236 | 0.0 | 0.0 | 0.00 | 0.00 | 0.00 | 40 | 1011.8 |
| 20260507120630 | 16 | 236 | 0.0 | 0.0 | 0.00 | 0.00 | 0.00 | 40 | 1011.8 |
| 20260507120006 | 17 | 236 | 0.0 | 0.0 | 0.00 | 0.00 | 0.00 | 39 | 1011.8 |
| 20260507115618 | 17 | 236 | 0.0 | 0.0 | 0.00 | 0.00 | 0.00 | 39 | 1011.7 |
| 20260507115034 | 17 | 236 | 0.0 | 0.0 | 0.00 | 0.00 | 0.00 | 39 | 1011.6 |
| 20260507114614 | 17 | 236 | 0.0 | 0.0 | 0.00 | 0.00 | 0.00 | 39 | 1011.7 |
| 20260507114110 | 17 | 236 | 0.0 | 0.0 | 0.00 | 0.00 | 0.00 | 38 | 1011.7 |
| 20260507113550 | 17 | 236 | 0.0 | 0.0 | 0.00 | 0.00 | 0.00 | 39 | 1011.7 |
| 20260507113108 | 17 | 236 | 0.0 | 0.0 | 0.00 | 0.00 | 0.00 | 38 | 1011.8 |
| 20260507112549 | 17 | 236 | 0.0 | 0.0 | 0.00 | 0.00 | 0.00 | 37 | 1011.9 |
| 20260507112125 | 17 | 236 | 0.0 | 0.0 | 0.00 | 0.00 | 0.00 | 37 | 1011.9 |
| 20260507111541 | 18 | 236 | 0.0 | 0.0 | 0.00 | 0.00 | 0.00 | 36 | 1011.9 |
| 20260507111100 | 18 | 236 | 0.0 | 0.0 | 0.00 | 0.00 | 0.00 | 35 | 1011.9 |
| 20260507110503 | 18 | 236 | 0.0 | 0.0 | 0.00 | 0.00 | 0.00 | 35 | 1012.0 |
| 20260507110153 | 18 | 236 | 0.0 | 1.6 | 0.00 | 0.00 | 0.00 | 34 | 1012.0 |
| 20260507105639 | 18 | 236 | 0.0 | 1.6 | 0.00 | 0.00 | 0.00 | 35 | 1012.0 |
| 20260507105006 | 18 | 236 | 0.0 | 0.0 | 0.00 | 0.00 | 0.00 | 35 | 1012.0 |
| 20260507104547 | 17 | 236 | 0.0 | 0.0 | 0.00 | 0.00 | 0.00 | 36 | 1012.0 |
| 20260507104058 | 17 | 236 | 0.0 | 0.0 | 0.00 | 0.00 | 0.00 | 35 | 1012.2 |
| 20260507103516 | 18 | 236 | 0.0 | 0.0 | 0.00 | 0.00 | 0.00 | 35 | 1012.1 |
| 20260507103130 | 18 | 236 | 0.0 | 0.0 | 0.00 | 0.00 | 0.00 | 34 | 1012.2 |
| 20260507102608 | 18 | 236 | 0.0 | 0.0 | 0.00 | 0.00 | 0.00 | 34 | 1012.3 |
| 20260507102047 | 18 | 236 | 0.0 | 0.0 | 0.00 | 0.00 | 0.00 | 33 | 1012.3 |
| 20260507101606 | 18 | 236 | 0.0 | 0.0 | 0.00 | 0.00 | 0.00 | 33 | 1012.5 |
| 20260507101004 | 18 | 236 | 0.0 | 0.0 | 0.00 | 0.00 | 0.00 | 33 | 1012.4 |
| 20260507100620 | 18 | 236 | 0.0 | 0.0 | 0.00 | 0.00 | 0.00 | 33 | 1012.4 |
| 20260507100013 | 18 | 236 | 0.0 | 0.0 | 0.00 | 0.00 | 0.00 | 35 | 1012.4 |
| 20260507095603 | 18 | 236 | 0.0 | 0.0 | 0.00 | 0.00 | 0.00 | 35 | 1012.4 |
| 20260507095133 | 18 | 236 | 0.0 | 0.0 | 0.00 | 0.00 | 0.00 | 34 | 1012.4 |
| 20260507094652 | 18 | 236 | 0.0 | 0.0 | 0.00 | 0.00 | 0.00 | 34 | 1012.4 |
| 20260507094017 | 18 | 236 | 0.0 | 0.0 | 0.00 | 0.00 | 0.00 | 33 | 1012.4 |
| 20260507093613 | 18 | 236 | 0.0 | 0.0 | 0.00 | 0.00 | 0.00 | 32 | 1012.4 |
| 20260507093016 | 19 | 236 | 0.0 | 0.0 | 0.00 | 0.00 | 0.00 | 32 | 1012.4 |
| 20260507092545 | 19 | 236 | 0.0 | 0.0 | 0.00 | 0.00 | 0.00 | 31 | 1012.3 |
| 20260507092039 | 19 | 236 | 0.0 | 0.0 | 0.00 | 0.00 | 0.00 | 31 | 1012.1 |
| 20260507091543 | 19 | 236 | 0.0 | 0.0 | 0.00 | 0.00 | 0.00 | 31 | 1012.3 |
| 20260507091058 | 19 | 236 | 0.0 | 0.0 | 0.00 | 0.00 | 0.00 | 31 | 1012.3 |
| 20260507090618 | 19 | 236 | 0.0 | 0.0 | 0.00 | 0.00 | 0.00 | 30 | 1012.2 |
| 20260507090113 | 19 | 236 | 0.0 | 0.0 | 0.00 | 0.00 | 0.00 | 30 | 1012.2 |
| 20260507085504 | 19 | 236 | 0.0 | 0.0 | 0.00 | 0.00 | 0.00 | 30 | 1012.3 |
| 20260507085059 | 19 | 236 | 0.0 | 0.0 | 0.00 | 0.00 | 0.00 | 31 | 1012.3 |
| 20260507084505 | 20 | 236 | 0.0 | 0.0 | 0.00 | 0.00 | 0.00 | 30 | 1012.3 |
| 20260507084114 | 20 | 236 | 0.0 | 0.0 | 0.00 | 0.00 | 0.00 | 30 | 1012.2 |
| 20260507083551 | 20 | 236 | 0.0 | 0.0 | 0.00 | 0.00 | 0.00 | 30 | 1012.2 |
| 20260507083049 | 20 | 236 | 0.0 | 0.0 | 0.00 | 0.00 | 0.00 | 30 | 1012.3 |
| 20260507082602 | 20 | 236 | 0.0 | 0.0 | 0.00 | 0.00 | 0.00 | 30 | 1012.4 |
| 20260507082102 | 20 | 236 | 0.0 | 0.0 | 0.00 | 0.00 | 0.00 | 31 | 1012.5 |
| 20260507081519 | 20 | 236 | 0.0 | 0.0 | 0.00 | 0.00 | 0.00 | 30 | 1012.5 |
| 20260507081019 | 20 | 236 | 0.0 | 0.0 | 0.00 | 0.00 | 0.00 | 30 | 1012.5 |
| 20260507080615 | 20 | 236 | 0.0 | 0.0 | 0.00 | 0.00 | 0.00 | 30 | 1012.6 |
| 20260507080148 | 20 | 236 | 0.0 | 0.0 | 0.00 | 0.00 | 0.00 | 29 | 1012.6 |
| 20260507075507 | 20 | 236 | 0.0 | 0.0 | 0.00 | 0.00 | 0.00 | 29 | 1012.7 |
| 20260507075103 | 20 | 236 | 0.0 | 0.0 | 0.00 | 0.00 | 0.00 | 29 | 1012.6 |
| 20260507074507 | 21 | 236 | 0.0 | 0.0 | 0.00 | 0.00 | 0.00 | 29 | 1012.6 |
| 20260507074038 | 21 | 236 | 0.0 | 0.0 | 0.00 | 0.00 | 0.00 | 28 | 1012.5 |
| 20260507073632 | 21 | 236 | 0.0 | 0.0 | 0.00 | 0.00 | 0.00 | 28 | 1012.5 |
| 20260507073112 | 21 | 236 | 0.0 | 0.0 | 0.00 | 0.00 | 0.00 | 28 | 1012.5 |
| 20260507072606 | 21 | 236 | 0.0 | 0.0 | 0.00 | 0.00 | 0.00 | 28 | 1012.5 |
| 20260507072006 | 21 | 236 | 0.0 | 0.0 | 0.00 | 0.00 | 0.00 | 28 | 1012.6 |
| 20260507071536 | 21 | 236 | 0.0 | 0.0 | 0.00 | 0.00 | 0.00 | 28 | 1012.6 |
| 20260507071054 | 21 | 236 | 0.0 | 0.0 | 0.00 | 0.00 | 0.00 | 28 | 1012.6 |
| 20260507070553 | 21 | 236 | 0.0 | 0.0 | 0.00 | 0.00 | 0.00 | 28 | 1012.6 |
| 20260507070103 | 21 | 236 | 0.0 | 0.0 | 0.00 | 0.00 | 0.00 | 27 | 1012.7 |
| 20260507065502 | 21 | 236 | 0.0 | 0.0 | 0.00 | 0.00 | 0.00 | 28 | 1012.6 |
| 20260507065059 | 21 | 236 | 0.0 | 0.0 | 0.00 | 0.00 | 0.00 | 28 | 1012.5 |
| 20260507064653 | 21 | 236 | 0.0 | 0.0 | 0.00 | 0.00 | 0.00 | 27 | 1012.5 |
| 20260507064057 | 21 | 236 | 0.0 | 0.0 | 0.00 | 0.00 | 0.00 | 27 | 1012.6 |
| 20260507063616 | 22 | 236 | 0.0 | 0.0 | 0.00 | 0.00 | 0.00 | 27 | 1012.6 |
| 20260507063020 | 22 | 236 | 0.0 | 0.0 | 0.00 | 0.00 | 0.00 | 27 | 1012.7 |
| 20260507062618 | 22 | 236 | 0.0 | 0.0 | 0.00 | 0.00 | 0.00 | 27 | 1012.6 |
| 20260507062052 | 22 | 236 | 0.0 | 0.0 | 0.00 | 0.00 | 0.00 | 27 | 1012.6 |
| 20260507061611 | 22 | 236 | 0.0 | 0.0 | 0.00 | 0.00 | 0.00 | 27 | 1012.5 |
| 20260507061113 | 22 | 236 | 0.0 | 0.0 | 0.00 | 0.00 | 0.00 | 27 | 1012.5 |
| 20260507060510 | 22 | 236 | 0.0 | 0.0 | 0.00 | 0.00 | 0.00 | 27 | 1012.5 |
| 20260507060105 | 22 | 236 | 0.0 | 0.0 | 0.00 | 0.00 | 0.00 | 27 | 1012.6 |
| 20260507055512 | 22 | 236 | 0.0 | 0.0 | 0.00 | 0.00 | 0.00 | 28 | 1012.6 |
| 20260507055009 | 22 | 236 | 0.0 | 0.0 | 0.00 | 0.00 | 0.00 | 28 | 1012.6 |
| 20260507054503 | 22 | 236 | 0.0 | 0.0 | 0.00 | 0.00 | 0.00 | 27 | 1012.7 |
| 20260507054153 | 22 | 236 | 0.0 | 0.0 | 0.00 | 0.00 | 0.00 | 27 | 1012.6 |
| 20260507053647 | 22 | 236 | 0.0 | 0.0 | 0.00 | 0.00 | 0.00 | 27 | 1012.6 |
| 20260507053056 | 23 | 236 | 0.0 | 0.0 | 0.00 | 0.00 | 0.00 | 27 | 1012.5 |
| 20260507052504 | 23 | 236 | 0.0 | 0.0 | 0.00 | 0.00 | 0.00 | 26 | 1012.4 |
| 20260507052132 | 23 | 236 | 0.0 | 0.0 | 0.00 | 0.00 | 0.00 | 26 | 1012.4 |
| 20260507051518 | 23 | 236 | 0.0 | 0.0 | 0.00 | 0.00 | 0.00 | 25 | 1012.4 |
| 20260507051110 | 23 | 236 | 0.0 | 0.0 | 0.00 | 0.00 | 0.00 | 24 | 1012.5 |
| 20260507050507 | 24 | 236 | 0.0 | 6.4 | 0.00 | 0.00 | 0.00 | 24 | 1012.4 |
| 20260507050034 | 24 | 236 | 1.6 | 6.4 | 0.00 | 0.00 | 0.00 | 23 | 1012.3 |
| 20260507045547 | 24 | 236 | 0.0 | 4.8 | 0.00 | 0.00 | 0.00 | 24 | 1012.2 |
| 20260507045008 | 23 | 236 | 0.0 | 0.0 | 0.00 | 0.00 | 0.00 | 24 | 1012.3 |
| 20260507044540 | 24 | 236 | 0.0 | 0.0 | 0.00 | 0.00 | 0.00 | 24 | 1012.4 |
| 20260507044056 | 24 | 236 | 0.0 | 0.0 | 0.00 | 0.00 | 0.00 | 24 | 1012.4 |
| 20260507043516 | 24 | 236 | 0.0 | 0.0 | 0.00 | 0.00 | 0.00 | 24 | 1012.3 |
| 20260507043109 | 24 | 236 | 0.0 | 0.0 | 0.00 | 0.00 | 0.00 | 25 | 1012.4 |
| 20260507042605 | 24 | 236 | 0.0 | 0.0 | 0.00 | 0.00 | 0.00 | 25 | 1012.3 |
| 20260507042002 | 23 | 236 | 0.0 | 0.0 | 0.00 | 0.00 | 0.00 | 27 | 1012.1 |
| 20260507041520 | 23 | 236 | 0.0 | 0.0 | 0.00 | 0.00 | 0.00 | 26 | 1012.3 |
| 20260507041054 | 24 | 236 | 0.0 | 0.0 | 0.00 | 0.00 | 0.00 | 26 | 1012.2 |
| 20260507040612 | 24 | 236 | 0.0 | 0.0 | 0.00 | 0.00 | 0.00 | 26 | 1012.1 |
| 20260507040003 | 24 | 236 | 0.0 | 0.0 | 0.00 | 0.00 | 0.00 | 25 | 1011.9 |
| 20260507035521 | 25 | 236 | 0.0 | 0.0 | 0.00 | 0.00 | 0.00 | 25 | 1011.8 |
| 20260507035055 | 25 | 236 | 0.0 | 0.0 | 0.00 | 0.00 | 0.00 | 25 | 1012.0 |
| 20260507034550 | 25 | 236 | 0.0 | 0.0 | 0.00 | 0.00 | 0.00 | 24 | 1011.9 |
| 20260507034111 | 25 | 236 | 0.0 | 0.0 | 0.00 | 0.00 | 0.00 | 24 | 1011.8 |
| 20260507033509 | 25 | 236 | 0.0 | 0.0 | 0.00 | 0.00 | 0.00 | 24 | 1011.8 |
| 20260507033005 | 25 | 236 | 0.0 | 0.0 | 0.00 | 0.00 | 0.00 | 24 | 1011.7 |
| 20260507032559 | 25 | 236 | 0.0 | 0.0 | 0.00 | 0.00 | 0.00 | 23 | 1011.7 |
| 20260507032056 | 25 | 236 | 0.0 | 0.0 | 0.00 | 0.00 | 0.00 | 23 | 1011.5 |
| 20260507031608 | 25 | 236 | 0.0 | 0.0 | 0.00 | 0.00 | 0.00 | 23 | 1011.4 |
| 20260507031140 | 25 | 236 | 0.0 | 0.0 | 0.00 | 0.00 | 0.00 | 23 | 1011.3 |
| 20260507030618 | 25 | 236 | 0.0 | 0.0 | 0.00 | 0.00 | 0.00 | 23 | 1011.2 |
| 20260507030116 | 26 | 236 | 0.0 | 0.0 | 0.00 | 0.00 | 0.00 | 23 | 1011.1 |
| 20260507025602 | 26 | 236 | 0.0 | 0.0 | 0.00 | 0.00 | 0.00 | 22 | 1011.1 |
| 20260507025022 | 26 | 236 | 0.0 | 0.0 | 0.00 | 0.00 | 0.00 | 22 | 1011.1 |
| 20260507024556 | 26 | 236 | 0.0 | 0.0 | 0.00 | 0.00 | 0.00 | 22 | 1011.0 |
| 20260507024034 | 26 | 236 | 0.0 | 0.0 | 0.00 | 0.00 | 0.00 | 21 | 1010.9 |
| 20260507023509 | 26 | 236 | 0.0 | 0.0 | 0.00 | 0.00 | 0.00 | 21 | 1011.0 |
| 20260507023006 | 26 | 236 | 0.0 | 0.0 | 0.00 | 0.00 | 0.00 | 21 | 1011.0 |
| 20260507022559 | 27 | 236 | 0.0 | 0.0 | 0.00 | 0.00 | 0.00 | 21 | 1010.9 |
| 20260507022018 | 27 | 236 | 0.0 | 0.0 | 0.00 | 0.00 | 0.00 | 21 | 1010.9 |
| 20260507021515 | 27 | 236 | 0.0 | 0.0 | 0.00 | 0.00 | 0.00 | 21 | 1010.9 |
| 20260507021048 | 27 | 236 | 0.0 | 0.0 | 0.00 | 0.00 | 0.00 | 21 | 1010.7 |
| 20260507020606 | 27 | 236 | 0.0 | 6.4 | 0.00 | 0.00 | 0.00 | 21 | 1010.7 |
| 20260507020158 | 27 | 236 | 0.0 | 6.4 | 0.00 | 0.00 | 0.00 | 20 | 1010.7 |
| 20260507015545 | 27 | 233 | 0.0 | 4.8 | 0.00 | 0.00 | 0.00 | 21 | 1010.8 |
| 20260507015101 | 27 | 231 | 0.0 | 3.2 | 0.00 | 0.00 | 0.00 | 20 | 1010.8 |
| 20260507014501 | 27 | 245 | 0.0 | 3.2 | 0.00 | 0.00 | 0.00 | 21 | 1010.8 |
| 20260507014022 | 27 | 245 | 0.0 | 4.8 | 0.00 | 0.00 | 0.00 | 20 | 1010.7 |
| 20260507013552 | 27 | 245 | 0.0 | 4.8 | 0.00 | 0.00 | 0.00 | 20 | 1010.7 |
| 20260507013031 | 28 | 245 | 0.0 | 3.2 | 0.00 | 0.00 | 0.00 | 20 | 1010.7 |
| 20260507012546 | 28 | 245 | 0.0 | 0.0 | 0.00 | 0.00 | 0.00 | 20 | 1010.7 |
| 20260507011607 | 28 | 243 | 0.0 | 8.0 | 0.00 | 0.00 | 0.00 | 19 | 1010.8 |
| 20260507011038 | 28 | 239 | 1.6 | 8.0 | 0.00 | 0.00 | 0.00 | 19 | 1010.7 |
| 20260507010615 | 28 | 255 | 0.0 | 8.0 | 0.00 | 0.00 | 0.00 | 21 | 1010.7 |
| 20260507010007 | 28 | 268 | 0.0 | 8.0 | 0.00 | 0.00 | 0.00 | 20 | 1010.7 |
| 20260507005503 | 28 | 264 | 0.0 | 4.8 | 0.00 | 0.00 | 0.00 | 19 | 1010.7 |
| 20260507005054 | 28 | 264 | 0.0 | 1.6 | 0.00 | 0.00 | 0.00 | 19 | 1010.8 |
| 20260507004516 | 28 | 274 | 0.0 | 0.0 | 0.00 | 0.00 | 0.00 | 22 | 1010.7 |
| 20260507004108 | 29 | 274 | 0.0 | 0.0 | 0.00 | 0.00 | 0.00 | 20 | 1010.7 |
| 20260507003100 | 29 | 274 | 0.0 | 0.0 | 0.00 | 0.00 | 0.00 | 19 | 1010.7 |
| 20260507002631 | 28 | 247 | 0.0 | 3.2 | 0.00 | 0.00 | 0.00 | 22 | 1010.7 |
| 20260507002112 | 28 | 247 | 0.0 | 3.2 | 0.00 | 0.00 | 0.00 | 19 | 1010.7 |
| 20260507001514 | 28 | 248 | 0.0 | 0.0 | 0.00 | 0.00 | 0.00 | 19 | 1010.7 |
| 20260507001004 | 28 | 248 | 0.0 | 0.0 | 0.00 | 0.00 | 0.00 | 19 | 1010.8 |
| 20260507000534 | 28 | 248 | 0.0 | 11.3 | 0.00 | 0.00 | 0.00 | 20 | 1010.8 |
| 20260507000007 | 28 | 243 | 1.6 | 11.3 | 0.00 | 0.00 | 0.00 | 20 | 1010.7 |
| 20260506235502 | 29 | 261 | 0.0 | 9.7 | 0.00 | 0.00 | 0.00 | 20 | 1010.7 |
| 20260506235115 | 28 | 257 | 3.2 | 9.7 | 0.00 | 0.00 | 0.00 | 20 | 1010.7 |
| 20260506234632 | 29 | 252 | 1.6 | 9.7 | 0.00 | 0.00 | 0.00 | 20 | 1010.8 |
| 20260506234051 | 29 | 278 | 0.0 | 1.6 | 0.00 | 0.00 | 0.00 | 20 | 1010.8 |
| 20260506233510 | 28 | 278 | 0.0 | 0.0 | 0.00 | 0.00 | 0.00 | 21 | 1010.9 |
| 20260506233103 | 28 | 278 | 0.0 | 3.2 | 0.00 | 0.00 | 0.00 | 20 | 1011.0 |
| 20260506232542 | 28 | 271 | 0.0 | 11.3 | 0.00 | 0.00 | 0.00 | 20 | 1011.0 |
| 20260506232153 | 28 | 231 | 0.0 | 11.3 | 0.00 | 0.00 | 0.00 | 20 | 1010.9 |
| 20260506231518 | 29 | 245 | 1.6 | 11.3 | 0.00 | 0.00 | 0.00 | 20 | 1011.0 |
| 20260506231044 | 28 | 251 | 3.2 | 11.3 | 0.00 | 0.00 | 0.00 | 20 | 1011.0 |
| 20260506230557 | 28 | 181 | 0.0 | 0.0 | 0.00 | 0.00 | 0.00 | 20 | 1011.2 |
| 20260506230008 | 28 | 197 | 0.0 | 9.7 | 0.00 | 0.00 | 0.00 | 21 | 1011.3 |
| 20260506225634 | 28 | 194 | 3.2 | 9.7 | 0.00 | 0.00 | 0.00 | 21 | 1011.4 |
| 20260506225018 | 28 | 160 | 0.0 | 1.6 | 0.00 | 0.00 | 0.00 | 20 | 1011.4 |
| 20260506224551 | 29 | 155 | 0.0 | 3.2 | 0.00 | 0.00 | 0.00 | 21 | 1011.3 |
| 20260506224109 | 29 | 200 | 0.0 | 3.2 | 0.00 | 0.00 | 0.00 | 19 | 1011.5 |
| 20260506223507 | 29 | 288 | 0.0 | 6.4 | 0.00 | 0.00 | 0.00 | 21 | 1011.5 |
| 20260506223105 | 28 | 270 | 0.0 | 9.7 | 0.00 | 0.00 | 0.00 | 24 | 1011.6 |
| 20260506222540 | 28 | 190 | 1.6 | 9.7 | 0.00 | 0.00 | 0.00 | 19 | 1011.7 |
| 20260506222021 | 28 | 273 | 0.0 | 9.7 | 0.00 | 0.00 | 0.00 | 19 | 1011.7 |
| 20260506221538 | 29 | 274 | 1.6 | 9.7 | 0.00 | 0.00 | 0.00 | 19 | 1011.9 |
| 20260506221109 | 28 | 181 | 0.0 | 0.0 | 0.00 | 0.00 | 0.00 | 19 | 1011.9 |
| 20260506220545 | 29 | 109 | 0.0 | 0.0 | 0.00 | 0.00 | 0.00 | 18 | 1011.8 |
| 20260506220104 | 30 | 109 | 0.0 | 0.0 | 0.00 | 0.00 | 0.00 | 23 | 1011.9 |
| 20260506215546 | 29 | 110 | 0.0 | 3.2 | 0.00 | 0.00 | 0.00 | 19 | 1012.1 |
| 20260506215103 | 29 | 113 | 0.0 | 3.2 | 0.00 | 0.00 | 0.00 | 22 | 1012.2 |
| 20260506214601 | 28 | 328 | 0.0 | 1.6 | 0.00 | 0.00 | 0.00 | 20 | 1012.2 |
| 20260506214035 | 29 | 328 | 0.0 | 4.8 | 0.00 | 0.00 | 0.00 | 21 | 1012.4 |
| 20260506213627 | 29 | 328 | 0.0 | 4.8 | 0.00 | 0.00 | 0.00 | 21 | 1012.5 |
| 20260506213109 | 28 | 329 | 0.0 | 11.3 | 0.00 | 0.00 | 0.00 | 20 | 1012.5 |
| 20260506212604 | 28 | 331 | 0.0 | 14.5 | 0.00 | 0.00 | 0.00 | 20 | 1012.6 |
| 20260506212059 | 28 | 345 | 1.6 | 16.1 | 0.00 | 0.00 | 0.00 | 21 | 1012.8 |
| 20260506211616 | 28 | 353 | 0.0 | 12.9 | 0.00 | 0.00 | 0.00 | 25 | 1012.8 |
| 20260506211100 | 28 | 312 | 1.6 | 16.1 | 0.00 | 0.00 | 0.00 | 20 | 1012.8 |
| 20260506210614 | 28 | 1 | 0.0 | 9.7 | 0.00 | 0.00 | 0.00 | 22 | 1012.9 |
| 20260506210003 | 28 | 285 | 1.6 | 9.7 | 0.00 | 0.00 | 0.00 | 19 | 1013.0 |
| 20260506205531 | 30 | 343 | 0.0 | 0.0 | 0.00 | 0.00 | 0.00 | 20 | 1013.2 |
| 20260506205111 | 29 | 24 | 0.0 | 0.0 | 0.00 | 0.00 | 0.00 | 21 | 1013.2 |
| 20260506204005 | 27 | 252 | 0.0 | 12.9 | 0.00 | 0.00 | 0.00 | 25 | 1013.3 |
| 20260506203504 | 27 | 250 | 1.6 | 12.9 | 0.00 | 0.00 | 0.00 | 21 | 1013.4 |
| 20260506203115 | 27 | 255 | 1.6 | 9.7 | 0.00 | 0.00 | 0.00 | 21 | 1013.5 |
| 20260506202530 | 27 | 263 | 0.0 | 4.8 | 0.00 | 0.00 | 0.00 | 21 | 1013.5 |
| 20260506202012 | 27 | 299 | 0.0 | 1.6 | 0.00 | 0.00 | 0.00 | 21 | 1013.5 |
| 20260506201543 | 27 | 299 | 0.0 | 1.6 | 0.00 | 0.00 | 0.00 | 22 | 1013.5 |
| 20260506201006 | 27 | 267 | 0.0 | 0.0 | 0.00 | 0.00 | 0.00 | 21 | 1013.6 |
| 20260506200522 | 26 | 219 | 0.0 | 0.0 | 0.00 | 0.00 | 0.00 | 21 | 1013.5 |
| 20260506200010 | 27 | 219 | 0.0 | 14.5 | 0.00 | 0.00 | 0.00 | 22 | 1013.7 |
| 20260506195600 | 27 | 234 | 3.2 | 14.5 | 0.00 | 0.00 | 0.00 | 22 | 1013.7 |
| 20260506195054 | 27 | 197 | 0.0 | 9.7 | 0.00 | 0.00 | 0.00 | 23 | 1013.7 |
| 20260506194611 | 26 | 197 | 3.2 | 11.3 | 0.00 | 0.00 | 0.00 | 22 | 1013.7 |
| 20260506194106 | 27 | 206 | 4.8 | 11.3 | 0.00 | 0.00 | 0.00 | 22 | 1013.9 |
| 20260506193509 | 26 | 157 | 0.0 | 8.0 | 0.00 | 0.00 | 0.00 | 23 | 1014.0 |
| 20260506193100 | 27 | 162 | 0.0 | 4.8 | 0.00 | 0.00 | 0.00 | 24 | 1014.0 |
| 20260506192559 | 27 | 161 | 0.0 | 1.6 | 0.00 | 0.00 | 0.00 | 27 | 1014.0 |
| 20260506192132 | 26 | 335 | 0.0 | 6.4 | 0.00 | 0.00 | 0.00 | 23 | 1014.2 |
| 20260506191611 | 26 | 279 | 0.0 | 11.3 | 0.00 | 0.00 | 0.00 | 23 | 1014.2 |
| 20260506191108 | 26 | 260 | 3.2 | 11.3 | 0.00 | 0.00 | 0.00 | 23 | 1014.2 |
| 20260506190546 | 25 | 258 | 0.0 | 4.8 | 0.00 | 0.00 | 0.00 | 25 | 1014.1 |
| 20260506190139 | 25 | 258 | 0.0 | 9.7 | 0.00 | 0.00 | 0.00 | 25 | 1014.1 |
| 20260506185517 | 25 | 247 | 0.0 | 12.9 | 0.00 | 0.00 | 0.00 | 25 | 1014.3 |
| 20260506185100 | 26 | 248 | 4.8 | 12.9 | 0.00 | 0.00 | 0.00 | 25 | 1014.5 |
| 20260506184539 | 26 | 238 | 0.0 | 11.3 | 0.00 | 0.00 | 0.00 | 26 | 1014.5 |
| 20260506184048 | 25 | 235 | 3.2 | 11.3 | 0.00 | 0.00 | 0.00 | 26 | 1014.6 |
| 20260506183543 | 25 | 165 | 4.8 | 11.3 | 0.00 | 0.00 | 0.00 | 26 | 1014.7 |
| 20260506183135 | 26 | 188 | 0.0 | 9.7 | 0.00 | 0.00 | 0.00 | 25 | 1014.7 |
| 20260506182614 | 26 | 179 | 1.6 | 9.7 | 0.00 | 0.00 | 0.00 | 27 | 1014.6 |
| 20260506182014 | 25 | 227 | 1.6 | 6.4 | 0.00 | 0.00 | 0.00 | 26 | 1014.6 |
| 20260506181608 | 25 | 228 | 0.0 | 8.0 | 0.00 | 0.00 | 0.00 | 27 | 1014.7 |
| 20260506181119 | 25 | 229 | 1.6 | 9.7 | 0.00 | 0.00 | 0.00 | 28 | 1014.8 |
| 20260506180612 | 25 | 228 | 1.6 | 9.7 | 0.00 | 0.00 | 0.00 | 27 | 1014.8 |
| 20260506180002 | 25 | 231 | 0.0 | 4.8 | 0.00 | 0.00 | 0.00 | 29 | 1014.9 |
| 20260506175533 | 25 | 284 | 0.0 | 6.4 | 0.00 | 0.00 | 0.00 | 28 | 1015.0 |
| 20260506175111 | 25 | 285 | 1.6 | 6.4 | 0.00 | 0.00 | 0.00 | 28 | 1015.1 |
| 20260506174604 | 25 | 287 | 0.0 | 3.2 | 0.00 | 0.00 | 0.00 | 30 | 1015.0 |
| 20260506174028 | 25 | 288 | 0.0 | 1.6 | 0.00 | 0.00 | 0.00 | 29 | 1015.1 |
| 20260506173556 | 24 | 288 | 0.0 | 8.0 | 0.00 | 0.00 | 0.00 | 29 | 1015.0 |
| 20260506173120 | 24 | 287 | 0.0 | 9.7 | 0.00 | 0.00 | 0.00 | 29 | 1015.0 |